Location: Baia Mare
(47.6567°N, 23.5850°E)
Time: 12:31:09
(UTC+02:00)

ISS - Pass Details

Date: 09 January 2019
Orbit: 404 x 407 km, 51.6° (Epoch: 16 January)

Event Time Altitude Azimuth Distance (km) Brightness Sun altitude
Exits shadow 05:27:21 23° 90° (E) 920 -1.3 -27.0°
Drops below altitude 10° 05:28:46 10° 98° (E) 1,468 0.0 -26.7°
Sets 05:30:52 0° 102° (ESE) 2,327 1.3 -26.4°
